When you browse on this site, cookies collect data to enhance your experience and personalize the content and advertising you see.
Visit our Privacy Policy to learn more. By continuing to use the site, you agree to this use of cookies and data.
  • In Sweden
  • List of Countries
  • For 7 days
  • Water Temperature
  • Weather Map
  • Weather Widgets
  • user-avatar
    Login

    Hourly Weather Starzyno

    Today, 19 February, Wednesday

    Time Temperature Precipitation Wind Pressure Humidity
    00:00 +2°C° 0 mm 5 mps 755 mmHg 76%
    01:00 +1°C° 0 mm 5 mps 755 mmHg 75%
    02:00 +1°C° 0 mm 5 mps 754 mmHg 79%
    03:00 +1°C° 0 mm 5 mps 754 mmHg 82%
    04:00 +1°C° 0 mm 5 mps 754 mmHg 86%
    05:00 +1°C° 0 mm 5 mps 753 mmHg 86%
    06:00 0°C° 0 mm 5 mps 753 mmHg 86%
    07:00 0°C° 0 mm 5 mps 753 mmHg 85%
    08:00 +1°C° 0 mm 5 mps 753 mmHg 80%
    09:00 +2°C° 0 mm 5 mps 752 mmHg 76%
    10:00 +3°C° 0 mm 6 mps 752 mmHg 71%
    11:00 +4°C° 0 mm 6 mps 752 mmHg 69%
    12:00 +4°C° 0 mm 6 mps 751 mmHg 67%
    13:00 +5°C° 0 mm 6 mps 751 mmHg 65%
    14:00 +6°C° 0 mm 5 mps 750 mmHg 65%
    15:00 +6°C° 0 mm 4 mps 750 mmHg 65%
    16:00 +7°C° 0 mm 3 mps 750 mmHg 65%
    17:00 +5°C° 0.2 mm 4 mps 750 mmHg 73%
    18:00 +5°C° 0.2 mm 4 mps 750 mmHg 80%
    19:00 +3°C° 0.2 mm 5 mps 750 mmHg 87%
    20:00 +3°C° 0.2 mm 5 mps 750 mmHg 86%
    21:00 +2°C° 0.2 mm 5 mps 751 mmHg 84%
    22:00 +2°C° 0.2 mm 5 mps 751 mmHg 83%
    23:00 +2°C° 0 mm 5 mps 751 mmHg 83%

    Tomorrow, 20 February, Thursday

    Time Temperature Precipitation Wind Pressure Humidity
    00:00 +1°C° 0 mm 5 mps 752 mmHg 84%
    01:00 +1°C° 0 mm 5 mps 752 mmHg 84%
    02:00 +1°C° 0.1 mm 4 mps 752 mmHg 86%
    03:00 +1°C° 0.1 mm 4 mps 753 mmHg 88%
    04:00 +2°C° 0.1 mm 3 mps 753 mmHg 90%
    05:00 +2°C° 0.2 mm 3 mps 754 mmHg 90%
    06:00 +2°C° 0.2 mm 3 mps 754 mmHg 90%
    07:00 +2°C° 0.2 mm 3 mps 754 mmHg 90%
    08:00 +2°C° 0 mm 3 mps 755 mmHg 87%
    09:00 +2°C° 0 mm 3 mps 755 mmHg 84%
    10:00 +3°C° 0 mm 3 mps 756 mmHg 81%
    11:00 +3°C° 0 mm 3 mps 756 mmHg 78%
    12:00 +3°C° 0 mm 3 mps 756 mmHg 75%
    13:00 +4°C° 0 mm 3 mps 756 mmHg 72%
    14:00 +4°C° 0 mm 3 mps 756 mmHg 71%
    15:00 +5°C° 0 mm 2 mps 756 mmHg 70%
    16:00 +5°C° 0 mm 2 mps 756 mmHg 69%
    17:00 +5°C° 0 mm 2 mps 756 mmHg 72%
    18:00 +3°C° 0 mm 3 mps 756 mmHg 74%
    19:00 +3°C° 0 mm 3 mps 756 mmHg 76%
    20:00 +2°C° 0 mm 3 mps 756 mmHg 76%
    21:00 +1°C° 0 mm 4 mps 755 mmHg 77%
    22:00 +1°C° 0 mm 4 mps 755 mmHg 77%
    23:00 0°C° 0 mm 5 mps 754 mmHg 76%

    Day after tomorrow, 21 February, Friday

    Time Temperature Precipitation Wind Pressure Humidity
    00:00 0°C° 0 mm 5 mps 754 mmHg 75%
    01:00 -1°C° 0 mm 6 mps 753 mmHg 75%
    02:00 -1°C° 0.1 mm 6 mps 752 mmHg 76%
    03:00 0°C° 0.1 mm 7 mps 752 mmHg 78%
    04:00 0°C° 0.1 mm 7 mps 751 mmHg 80%
    05:00 0°C° 0.5 mm 7 mps 750 mmHg 84%
    06:00 +2°C° 0.5 mm 7 mps 750 mmHg 89%
    07:00 +1°C° 0.5 mm 8 mps 750 mmHg 93%
    14:00 +2°C° 0 mm 8 mps 755 mmHg 63%
    15:00 +3°C° 0 mm 7 mps 756 mmHg 64%
    16:00 +3°C° 0 mm 7 mps 756 mmHg 66%
    17:00 +3°C° 0 mm 6 mps 757 mmHg 69%
    18:00 +2°C° 0 mm 6 mps 758 mmHg 72%
    19:00 +1°C° 0 mm 5 mps 759 mmHg 76%
    20:00 +1°C° 0 mm 5 mps 759 mmHg 78%
    21:00 +1°C° 0 mm 5 mps 759 mmHg 80%
    22:00 0°C° 0 mm 5 mps 759 mmHg 83%
    23:00 0°C° 0 mm 4 mps 759 mmHg 84%

    22 February, Saturday

    Time Temperature Precipitation Wind Pressure Humidity
    00:00 0°C° 0 mm 4 mps 760 mmHg 85%
    01:00 -1°C° 0 mm 4 mps 760 mmHg 86%
    02:00 -1°C° 0 mm 4 mps 759 mmHg 86%
    03:00 -1°C° 0 mm 4 mps 759 mmHg 86%
    04:00 -1°C° 0 mm 4 mps 759 mmHg 87%
    05:00 -1°C° 0 mm 5 mps 759 mmHg 86%
    06:00 -1°C° 0 mm 5 mps 758 mmHg 86%
    07:00 -2°C° 0 mm 6 mps 758 mmHg 85%
    08:00 -1°C° 0 mm 6 mps 758 mmHg 81%
    09:00 0°C° 0 mm 7 mps 757 mmHg 77%
    10:00 +2°C° 0 mm 7 mps 757 mmHg 73%
    11:00 +2°C° 0 mm 8 mps 756 mmHg 68%
    12:00 +4°C° 0 mm 8 mps 755 mmHg 64%
    13:00 +5°C° 0 mm 8 mps 755 mmHg 60%
    14:00 +5°C° 0 mm 7 mps 754 mmHg 60%
    15:00 +5°C° 0 mm 7 mps 753 mmHg 60%
    16:00 +5°C° 0 mm 7 mps 752 mmHg 60%
    17:00 +5°C° 0 mm 7 mps 752 mmHg 60%
    18:00 +5°C° 0 mm 7 mps 752 mmHg 60%
    19:00 +6°C° 0 mm 8 mps 751 mmHg 60%
    20:00 +6°C° 0 mm 8 mps 751 mmHg 61%
    21:00 +5°C° 0 mm 9 mps 751 mmHg 63%
    22:00 +5°C° 0 mm 9 mps 751 mmHg 64%
    23:00 +5°C° 0.3 mm 9 mps 751 mmHg 69%

    23 February, Sunday

    Time Temperature Precipitation Wind Pressure Humidity
    00:00 +5°C° 0.3 mm 8 mps 751 mmHg 74%
    01:00 +5°C° 0.3 mm 8 mps 751 mmHg 79%
    02:00 +4°C° 0.1 mm 8 mps 751 mmHg 79%
    03:00 +4°C° 0.1 mm 7 mps 751 mmHg 79%
    04:00 +4°C° 0.1 mm 7 mps 750 mmHg 78%
    05:00 +4°C° 0 mm 7 mps 751 mmHg 77%
    06:00 +4°C° 0 mm 7 mps 751 mmHg 76%
    07:00 +3°C° 0 mm 7 mps 751 mmHg 74%
    08:00 +4°C° 0 mm 8 mps 751 mmHg 71%
    09:00 +4°C° 0 mm 8 mps 751 mmHg 67%
    10:00 +5°C° 0 mm 9 mps 751 mmHg 64%
    11:00 +5°C° 0 mm 9 mps 751 mmHg 62%
    12:00 +5°C° 0 mm 8 mps 751 mmHg 60%
    13:00 +6°C° 0 mm 8 mps 751 mmHg 59%
    14:00 +5°C° 0.1 mm 7 mps 750 mmHg 67%
    15:00 +4°C° 0.1 mm 7 mps 749 mmHg 76%
    16:00 +3°C° 0.1 mm 6 mps 748 mmHg 84%
    17:00 +3°C° 0.1 mm 6 mps 747 mmHg 85%
    18:00 +3°C° 0.1 mm 5 mps 746 mmHg 87%
    19:00 +3°C° 0.1 mm 5 mps 745 mmHg 88%
    20:00 +4°C° 1.5 mm 3 mps 744 mmHg 91%
    21:00 +5°C° 1.5 mm 2 mps 742 mmHg 93%
    22:00 +6°C° 1.5 mm 1 mps 740 mmHg 96%
    23:00 +3°C° 0.7 mm 3 mps 740 mmHg 95%

    24 February, Monday

    Time Temperature Precipitation Wind Pressure Humidity
    00:00 +1°C° 0.7 mm 4 mps 740 mmHg 95%
    01:00 -1°C° 0.7 mm 6 mps 740 mmHg 95%
    02:00 -1°C° 0.5 mm 6 mps 742 mmHg 93%
    03:00 0°C° 0.5 mm 7 mps 744 mmHg 90%
    04:00 0°C° 0.5 mm 7 mps 745 mmHg 88%
    05:00 0°C° 0.4 mm 8 mps 746 mmHg 86%
    06:00 -1°C° 0.4 mm 9 mps 747 mmHg 84%
    07:00 -2°C° 0.4 mm 10 mps 748 mmHg 82%
    08:00 0°C° 0.1 mm 10 mps 749 mmHg 78%
    09:00 -1°C° 0.1 mm 11 mps 750 mmHg 73%
    10:00 +1°C° 0.1 mm 11 mps 751 mmHg 68%
    11:00 +2°C° 0 mm 10 mps 752 mmHg 64%
    12:00 +3°C° 0 mm 10 mps 753 mmHg 59%
    13:00 +5°C° 0 mm 10 mps 754 mmHg 55%
    14:00 +3°C° 0 mm 9 mps 754 mmHg 54%
    15:00 +4°C° 0 mm 8 mps 755 mmHg 53%
    16:00 +4°C° 0 mm 6 mps 756 mmHg 52%
    17:00 +3°C° 0 mm 6 mps 756 mmHg 58%
    18:00 +2°C° 0 mm 5 mps 757 mmHg 63%
    19:00 +1°C° 0 mm 4 mps 757 mmHg 69%
    20:00 +1°C° 0 mm 4 mps 758 mmHg 72%
    21:00 0°C° 0 mm 4 mps 758 mmHg 76%
    22:00 0°C° 0 mm 4 mps 758 mmHg 79%
    23:00 +1°C° 0 mm 3 mps 758 mmHg 81%
    Show more